Weather History for St. Paul, MN

Change the Weather History Date:

Friday, April 19, 2013

  Actual Average Record
Temperature  
Mean Temperature 34 °F -  
Max Temperature 37 °F 57 °F 66 °F (2007)
Min Temperature 28 °F 37 °F 28 °F (2013)
Degree Days  
Heating Degree Days 32    
Moisture  
Dew Point 25 °F    
Average Humidity 79    
Maximum Humidity 93    
Minimum Humidity 46    
Precipitation  
Precipitation 0.00 in - - ()
Sea Level Pressure  
Sea Level Pressure 29.61 in    
Wind  
Wind Speed 20 mph (NW)    
Max Wind Speed 26 mph    
Max Gust Speed 39 mph    
Visibility 4 miles    
Events Rain , Snow    
Averages and records for this station are not official NWS values.
T = Trace of Precipitation, MM = Missing Value Source: NWS Daily Summary

Daily Weather History Graph

Daily Weather History Graph

Search for Another Location

Airport:

Trip Planner

Search our weather history database for the weather conditions in past years. The results will help you decide how hot, cold, wet, or windy it might be!

Date:

Astronomy

Apr. 19, 2013 Rise Set
Actual Time 6:20 AM CDT 8:03 PM CDT
Civil Twilight 5:49 AM CDT 8:34 PM CDT
Nautical Twilight 5:11 AM CDT 9:12 PM CDT
Astronomical Twilight 4:30 AM CDT 9:53 PM CDT
Moon 1:32 PM CDT (4/19) 2:52 AM CDT (4/19)
Length of Visible Light 14h 44m
Length of Day
13h 42m
First Quarter, 62% of the Moon is Illuminated
Apr 19
First Quarter
Apr 25
Full
May 2
Last Quarter
May 9
New
May 17
First Quarter

Hourly Weather History & Observations

Time (CDT) Temp. Windchill Dew Point Humidity Pressure Visibility Wind Dir Wind Speed Gust Speed Precip Events Conditions
12:12 AM 32.0 °F 19.8 °F 28.4 °F 87% 29.49 in 1.2 mi NW 20.7 mph 29.9 mph 0.00 in Snow Light Snow
12:17 AM 32.0 °F 19.5 °F 28.4 °F 87% 29.49 in 1.5 mi NW 21.9 mph 29.9 mph 0.00 in Snow Light Snow
12:25 AM 32.0 °F 19.5 °F 28.4 °F 87% 29.48 in 1.2 mi NW 21.9 mph 29.9 mph 0.00 in Snow Light Snow
12:27 AM 32.0 °F 18.6 °F 28.4 °F 87% 29.48 in 1.0 mi NW 25.3 mph 29.9 mph 0.00 in Snow Light Snow
12:44 AM 32.0 °F 19.5 °F 28.4 °F 87% 29.49 in 1.2 mi NW 21.9 mph 31.1 mph 0.00 in Snow Light Snow
12:46 AM 32.0 °F 19.2 °F 28.4 °F 87% 29.48 in 1.5 mi NW 23.0 mph 31.1 mph 0.00 in Snow Light Snow
12:53 AM 32.0 °F 19.5 °F 28.9 °F 88% 29.50 in 1.8 mi NW 21.9 mph 29.9 mph 0.00 in Snow Light Snow
1:12 AM 32.0 °F 18.9 °F 28.4 °F 87% 29.48 in 1.2 mi NW 24.2 mph 32.2 mph 0.00 in Snow Light Snow
1:28 AM 32.0 °F 19.8 °F 28.4 °F 87% 29.48 in 1.8 mi NW 20.7 mph - 0.00 in Snow Light Snow
1:38 AM 32.0 °F 20.1 °F 28.4 °F 87% 29.48 in 2.5 mi NW 19.6 mph - 0.00 in Snow Light Snow
1:53 AM 32.0 °F 19.8 °F 28.9 °F 88% 29.49 in 2.0 mi NW 20.7 mph - 0.00 in Snow Light Snow
2:01 AM 32.0 °F 20.1 °F 28.4 °F 87% 29.47 in 1.5 mi NW 19.6 mph - 0.00 in Snow Light Snow
2:47 AM 32.0 °F 20.8 °F 28.4 °F 87% 29.47 in 1.2 mi NW 17.3 mph 24.2 mph 0.00 in Snow Light Snow
2:53 AM 32.0 °F 20.8 °F 28.9 °F 88% 29.49 in 1.5 mi NW 17.3 mph 24.2 mph 0.00 in Snow Light Snow
3:02 AM 32.0 °F 20.1 °F 28.4 °F 87% 29.48 in 2.0 mi NW 19.6 mph - 0.00 in Snow Light Snow
3:29 AM 32.0 °F 20.1 °F 28.4 °F 87% 29.48 in 3.0 mi NW 19.6 mph - 0.00 in Snow Light Snow
3:45 AM 30.2 °F 17.8 °F 28.4 °F 93% 29.48 in 1.8 mi NW 19.6 mph - 0.00 in Snow Light Snow
3:53 AM 30.9 °F 19.1 °F 28.0 °F 89% 29.50 in 1.8 mi NW 18.4 mph 28.8 mph 0.00 in Snow Light Snow
4:07 AM 30.2 °F 17.8 °F 28.4 °F 93% 29.49 in 2.5 mi NW 19.6 mph - 0.00 in Snow Light Snow
4:42 AM 30.2 °F 18.1 °F 28.4 °F 93% 29.50 in 1.5 mi NW 18.4 mph - 0.00 in Snow Light Snow
4:53 AM 30.9 °F 19.8 °F 28.0 °F 89% 29.52 in 1.8 mi NW 16.1 mph - 0.00 in Snow Light Snow
4:58 AM 30.2 °F 17.8 °F 28.4 °F 93% 29.50 in 2.0 mi NW 19.6 mph - 0.00 in Snow Light Snow
5:25 AM 30.2 °F 17.1 °F 28.4 °F 93% 29.51 in 3.0 mi NW 21.9 mph - 0.00 in Snow Light Snow
5:53 AM 30.9 °F 19.4 °F 27.0 °F 85% 29.53 in 3.0 mi NW 17.3 mph 27.6 mph 0.00 in Snow Light Snow
6:08 AM 30.2 °F 17.8 °F 26.6 °F 86% 29.52 in 4.0 mi NW 19.6 mph 28.8 mph 0.00 in Snow Light Snow
6:17 AM 30.2 °F 18.1 °F 26.6 °F 86% 29.53 in 2.5 mi NW 18.4 mph 32.2 mph 0.00 in Snow Light Snow
6:33 AM 30.2 °F 17.8 °F 26.6 °F 86% 29.54 in 1.8 mi NW 19.6 mph - 0.00 in Snow Light Snow
6:41 AM 30.2 °F 17.8 °F 26.6 °F 86% 29.54 in 3.0 mi NW 19.6 mph - 0.00 in Snow Light Snow
6:53 AM 30.9 °F 18.4 °F 26.1 °F 82% 29.56 in 3.0 mi NW 20.7 mph 28.8 mph 0.00 in Snow Light Snow
7:02 AM 30.2 °F 17.4 °F 26.6 °F 86% 29.55 in 2.0 mi NNW 20.7 mph 27.6 mph 0.00 in Snow Light Snow
7:11 AM 30.2 °F 18.5 °F 26.6 °F 86% 29.55 in 3.0 mi NW 17.3 mph - 0.00 in Snow Light Snow
7:35 AM 30.2 °F 17.4 °F 24.8 °F 80% 29.56 in 8.0 mi NW 20.7 mph - 0.00 in   Overcast
7:53 AM 30.9 °F 17.5 °F 25.0 °F 79% 29.58 in 9.0 mi NW 24.2 mph 29.9 mph 0.00 in   Overcast
8:06 AM 30.2 °F 17.4 °F 24.8 °F 80% 29.57 in 9.0 mi NW 20.7 mph 27.6 mph 0.00 in   Overcast
8:38 AM 30.2 °F 17.1 °F 24.8 °F 80% 29.57 in 5.0 mi NW 21.9 mph - 0.00 in Snow Light Snow
8:43 AM 30.2 °F 16.5 °F 24.8 °F 80% 29.58 in 2.5 mi NW 24.2 mph 28.8 mph 0.00 in Snow Light Snow
8:53 AM 30.0 °F 16.6 °F 25.0 °F 82% 29.60 in 2.0 mi NW 23.0 mph - 0.00 in Snow Light Snow
9:28 AM 30.2 °F 18.1 °F 26.6 °F 86% 29.59 in 2.0 mi NW 18.4 mph - 0.00 in Snow Light Snow
9:34 AM 30.2 °F 17.4 °F 24.8 °F 80% 29.59 in 1.8 mi NW 20.7 mph - N/A Snow Light Snow
9:53 AM 30.9 °F 19.1 °F 25.0 °F 79% 29.62 in 2.0 mi NW 18.4 mph - 0.00 in Snow Light Snow
10:01 AM 30.2 °F 18.9 °F 24.8 °F 80% 29.61 in 1.5 mi NNW 16.1 mph 24.2 mph 0.00 in Snow Light Snow
10:14 AM 30.2 °F 16.8 °F 24.8 °F 80% 29.61 in 2.0 mi NNW 23.0 mph 33.4 mph 0.00 in Snow Light Snow
10:23 AM 30.2 °F 17.4 °F 24.8 °F 80% 29.62 in 6.0 mi NNW 20.7 mph 31.1 mph 0.00 in Snow Light Snow
10:43 AM 30.2 °F 19.8 °F 24.8 °F 80% 29.63 in 1.8 mi NNW 13.8 mph 27.6 mph 0.00 in Snow Light Snow
10:50 AM 30.2 °F 17.1 °F 24.8 °F 80% 29.63 in 2.0 mi NNW 21.9 mph 32.2 mph 0.00 in Snow Light Snow
10:53 AM 30.9 °F 20.2 °F 24.1 °F 76% 29.65 in 2.5 mi NNW 15.0 mph 32.2 mph 0.00 in Snow Light Snow
11:02 AM 32.0 °F 20.8 °F 24.8 °F 75% 29.63 in 6.0 mi NNW 17.3 mph - 0.00 in Snow Light Snow
11:53 AM 32.0 °F 19.8 °F 24.1 °F 73% 29.68 in 4.0 mi NNW 20.7 mph 26.5 mph 0.00 in Snow Light Snow
12:14 PM 30.2 °F 17.1 °F 24.8 °F 80% 29.67 in 1.8 mi NW 21.9 mph 29.9 mph 0.00 in Snow Light Snow
12:17 PM 30.2 °F 17.1 °F 24.8 °F 80% 29.67 in 1.2 mi NW 21.9 mph 29.9 mph 0.00 in Snow Light Snow
12:23 PM 30.2 °F 17.8 °F 24.8 °F 80% 29.68 in 1.5 mi NW 19.6 mph 28.8 mph 0.00 in Snow Light Snow
12:27 PM 32.0 °F 21.2 °F 24.8 °F 75% 29.68 in 3.0 mi NNW 16.1 mph 26.5 mph 0.00 in Snow Light Snow
12:53 PM 34.0 °F 23.0 °F 21.9 °F 61% 29.70 in 10.0 mi NNW 18.4 mph 32.2 mph 0.00 in Rain Light Rain
1:53 PM 35.1 °F 22.5 °F 21.0 °F 57% 29.72 in 10.0 mi NNW 26.5 mph 35.7 mph 0.00 in   Mostly Cloudy
2:53 PM 37.0 °F 25.9 °F 19.9 °F 50% 29.74 in 10.0 mi NNW 23.0 mph 33.4 mph 0.00 in   Mostly Cloudy
3:53 PM 36.0 °F 23.9 °F 19.9 °F 52% 29.77 in 10.0 mi NNW 25.3 mph 39.1 mph 0.00 in   Mostly Cloudy
4:53 PM 36.0 °F 24.4 °F 19.9 °F 52% 29.81 in 10.0 mi NW 23.0 mph 33.4 mph N/A   Overcast
5:53 PM 37.0 °F 26.2 °F 18.0 °F 46% 29.84 in 10.0 mi NNW 21.9 mph 33.4 mph N/A   Partly Cloudy
6:53 PM 36.0 °F 26.7 °F 21.0 °F 55% 29.88 in 10.0 mi NW 15.0 mph - N/A   Overcast
7:53 PM 35.1 °F 26.9 °F 21.0 °F 57% 29.91 in 10.0 mi NW 11.5 mph - N/A   Partly Cloudy
8:53 PM 33.1 °F 27.7 °F 19.9 °F 59% 29.94 in 10.0 mi NW 5.8 mph - N/A   Clear
9:53 PM 32.0 °F 24.8 °F 17.1 °F 54% 29.97 in 10.0 mi NW 8.1 mph - N/A   Clear
10:53 PM 30.9 °F 23.5 °F 16.0 °F 54% 29.99 in 10.0 mi NW 8.1 mph - N/A   Clear
11:53 PM 28.9 °F 21.1 °F 15.1 °F 56% 30.01 in 10.0 mi WNW 8.1 mph - N/A   Clear